STARLINK-11234, 60400

Orbit data source: Space-Track

STARLINK-11234, 60400 is a payload satellite owned by SpaceX/Seattle (US) in LEO that was launched on Sat, 10 Aug 2024 UTC via an FALCON 9 launch vehicle from the Air Force Eastern Test Range (AFETR). Payload-class satellites include a variety of spacecraft equipped with specific instruments for various scientific and technological missions. These include communications satellites like Starlink; space stations such as the ISS; scientific satellites like the Hubble; Earth observation satellites from companies like Planet Labs, Umbra, and HawkEye 360; GPS; miniature CubeSats for education and research; and military/defense satellites.

Loading next visibility...
Identifier
60400, 2024-141C
Orbit
LEO
Country
Flag of USUS
Related business
Manufacturer
SpaceX/Seattle
Mission
Operational Commercial Communications
Bus & Motor
STARLINK V2MD, Unknown motor
Mass
960 kg wet, ~910 kg dry
Launch date (UTC)
2024-08-10 (1 year ago)
Launch vehicle
FALCON 9
Launch site
Air Force Eastern Test Range (AFETR)
Object type
Payload
Rocket body
Debris
Shape & HBR
Box + 2 Pan, 14.5 m
Radar Cross Section
36.964 m², Large (>1 m²)

Expand to show TLE details & history
Last TLE update: 22 hours ago

TLE from 22 hours ago
0 STARLINK-11234
1 60400U 24141C   25260.30454180 -.00001022  00000-0 -35734-5 0  9996
2 60400  53.1607 220.7799 0001618  89.2180 270.9023 15.69712078 64463
Epoch: 2025-09-17T07:18Z
TLE epoch observation values (Epoch: 2025-09-17T07:18:32.411Z)
Latitude
-0.00005°
Longitude
114.66241°
Altitude
360.619 km
Speed
7.694 km/s
True Right ascension
14h 43m 07s
True Declination
0° 00' 00"
Sunlit
Object was in daylight at epoch
Visualization orbit readout
Latitude
Unknown
Longitude
Unknown
Altitude
Unknown
Speed
Unknown
Apparent Right ascension
Unknown
Apparent Declination
Unknown
Sunlit
N/A
Visualization observer readout
Local Sidereal Time
21:57:55
Azimuth
Unknown
Elevation
Unknown
Doppler factor
Unknown
Orbital elements
Apogee altitude
361.072 km
Perigee altitude
358.891 km
Semi-major axis
6,738.118 km
Eccentricity
0.00016
Inclination
53.1607°
RAAN
220.7799°
Arg. of periapsis
89.218°
True anomaly
270.88376°
Mean anomaly
270.9023°
Eccentric anomaly
270.89303°
Mean motion
3.92406 °/min
Orbital period
91.74 mins
BSTAR
-0.0000035734
Loading maneuver chart data...
Computing Atmospheric mass density...
Loading historical data...
Loading historical data...
Loading historical data...
Loading historical data...
Loading historical data...
Loading historical data...
Loading historical data...

Documentation

Showing up to 5 results
|